Lid_Strength_Index
5 5 5 5 6 7 6 5 6 1 2 6 6 8 8 10 8 7 7 7 7 8 7 8 8 8 7 6 6 7 6 7 9 8 6 6 6 7 7 10 10 9 9 9
4 5 5 5 7 7 6 5 4 1 3 8 8 7 8 8 8 7 7 8 6 6 7 9 7 7 6 6 5 6 6 8 10 9 7 6 7 7 7 7 7 9 11 9
4 4 4 5 6 7 6 5 7 5 5 5 7 8 8 9 8 8 6 6 5 6 7 7 8 7 7 6 5 6 5 7 8 10 9 7 8 8 7 7 9 9 9 8
4 4 4 4 6 7 6 5 6 7 7 7 7 7 8 9 9 7 6 6 7 7 8 8 8 7 7 6 6 5 6 8 8 7 7 7 8 8 8 8 8 9 8 8
4 4 4 4 6 7 6 7 6 6 6 7 8 10 8 8 9 7 8 7 6 6 7 7 8 7 6 7 5 5 5 9 8 8 8 8 8 7 7 7 7 8 8 9
4 4 4 4 6 8 6 5 5 6 8 7 8 8 8 8 7 7 6 6 6 7 6 5 5 5 6 6 6 7 7 7 9 10 8 8 10 8 7 7 7 7 9 9
4 3 3 3 6 7 6 6 6 7 8 7 8 8 8 8 7 8 7 6 7 6 5 5 6 6 5 5 5 5 7 8 7 10 9 13 8 7 7 8 7 7 8 7
3 3 3 3 5 6 7 4 6 7 9 7 8 8 8 7 7 8 7 6 5 4 5 7 8 8 7 7 6 5 6 7 9 11 11 9 8 8 8 9 8 7 8 7
3 3 3 3 4 6 7 6 5 6 8 8 7 8 7 8 8 8 7 3 3 4 5 6 10 10 9 10 9 5 6 6 8 9 11 13 10 8 6 7 11 7 7 7
3 2 2 2 3 6 7 7 6 6 7 7 7 8 8 6 7 8 5 5 5 4 6 9 9 9 8 10 10 10 9 8 9 9 10 9 8 7 6 13 12 7 7 7
2 2 2 2 3 5 6 6 6 6 7 7 7 7 7 6 6 7 5 6 5 6 8 10 8 8 8 9 8 9 9 10 9 9 10 11 6 6 11 9 6 6 6 6
2 3 2 2 3 4 6 7 5 4 6 7 5 6 5 4 3 4 4 5 5 4 8 8 6 8 8 8 11 7 10 7 9 8 9 7 6 6 5 5 6 6 6 6
3 3 3 3 4 4 6 6 5 4 6 7 7 6 4 2 1 0 4 3 3 4 3 5 6 9 5 9 8 8 7 6 8 9 6 6 6 5 5 5 6 7 5 5
3 3 3 4 4 4 5 5 4 5 6 9 8 4 4 1 -0 1 1 2 2 2 3 5 7 6 5 6 7 8 6 7 8 8 6 6 5 5 4 4 5 5 5 4
3 3 4 4 5 5 5 4 4 4 6 9 7 3 2 1 1 1 1 2 3 4 5 5 7 4 6 4 6 7 6 7 9 9 6 6 6 5 4 4 4 5 5 5
4 4 4 5 5 5 5 6 4 4 4 6 8 3 3 1 1 2 2 2 2 2 4 4 4 4 6 9 9 6 5 4 4 6 4 4 4 3 3 4 4 4 4 4
4 5 5 5 5 4 5 6 5 5 2 4 6 6 3 2 2 2 3 2 2 2 4 5 5 5 5 6 10 6 4 4 4 3 4 5 4 5 3 3 3 3 3 3
4 5 5 5 5 5 5 4 4 3 2 3 6 7 5 2 5 5 2 4 4 4 4 4 6 5 5 10 6 5 4 4 4 4 3 3 3 3 3 3 3 4 4 4
5 5 5 4 4 4 4 3 3 -0 2 5 5 8 9 3 4 4 4 3 6 4 6 6 5 7 10 7 6 5 4 4 4 4 3 4 4 4 4 3 4 4 4 4
5 4 5 6 3 3 3 2 3 3 3 3 6 3 7 4 5 6 6 5 6 9 7 5 7 8 5 5 4 3 4 4 4 5 5 4 4 4 4 4 4 3 3 4
1 3 4 1 2 1 3 6 6 5 7 4 4 5 6 3 7 7 5 7 7 10 9 9 10 10 6 4 4 4 4 4 3 4 3 3 4 4 4 3 3 3 2 3
2 2 1 1 3 4 7 8 7 7 8 5 6 5 4 4 3 6 6 8 8 11 6 9 11 7 5 4 4 4 4 4 4 4 4 3 3 3 4 3 2 3 2 2
-0 2 4 5 6 11 11 13 10 9 6 5 5 6 5 4 4 6 7 9 10 6 10 11 8 6 5 4 4 4 4 5 4 5 4 4 4 3 3 2 2 2 2 3
5 7 12 8 9 8 7 7 8 6 5 6 6 6 6 4 7 6 9 7 8 12 13 12 7 6 5 4 4 4 5 6 5 5 5 4 4 4 3 2 2 2 3 4
6 6 12 10 7 7 6 6 6 5 5 6 7 7 6 7 8 7 8 11 13 12 13 7 6 5 4 4 4 5 5 5 4 4 5 5 4 4 4 4 4 3 4 4
5 6 9 7 8 8 6 6 6 4 4 5 6 9 10 10 10 11 11 12 14 10 8 6 5 5 5 4 4 4 4 4 3 4 4 5 5 5 4 3 4 4 4 4
6 6 3 5 5 5 6 6 6 4 6 9 8 11 12 8 12 12 10 12 9 7 6 5 5 5 4 4 4 4 3 3 3 3 3 3 4 4 5 5 3 3 3 3